434  
ASUS44 KFWD 102310  
RWRFWD  
NORTH TEXAS HOURLY WEATHER ROUNDUP  
NATIONAL WEATHER SERVICE FORT WORTH TX  
500 PM CST FRI NOV 10 2017  
 
NOTE: "FAIR" INDICATES FEW OR NO CLOUDS BELOW 12,000 FEET WITH NO  
SIGNIFICANT WEATHER AND/OR S TO VISIBILITY
.  
 
TXZ118-119-110000-  
DALLAS/FORT WORTH METROPLEX  
 
CITY SKY/WX TMP DP RH WIND PRES REMARKS
 
DFW AIRPORT PTCLDY 63 46 54 SE9 30.18R  
DALLAS LOVE MOCLDY 63 45 51 SE10 30.19S  
FTW MEACHAM CLEAR 62 47 57 SE7 30.18S  
DAL-EXECUTIVE CLEAR 61 44 53 E10 30.18F  
FTW-ALLIANCE MOCLDY 61 46 57 SE6 30.18F  
FTW-NAS-JRB CLEAR 62 45 53 SE8 30.19S  
FTW-SPINKS CLEAR 63 46 55 E6 30.20S  
ARLINGTON CLEAR 61 46 57 SE7 30.19S  
GRAND PRAIRIE CLEAR 63 45 51 SE6 30.20F  
ADDISON PTCLDY 63 41 45 SE6 30.19F  
MESQUITE PTCLDY 63 39 42 SE6 30.20S  
LANCASTER CLEAR 62 43 49 SE5 30.20S  

 
 
TXZ091>094-102>105-117-120-121-131>134-110000-  
NORTH CENTRAL TEXAS  
 
CITY SKY/WX TMP DP RH WIND PRES REMARKS
 
SHRMAN/DENISON CLOUDY 62 37 39 S9 30.20S  
GAINESVILLE CLEAR 59 43 55 S6 30.21S  
BOWIE CLOUDY 57 47 69 SE3 30.18F  
BRIDGEPORT MOCLDY 60 47 62 SE8 30.20S  
DECATUR CLOUDY 59 46 62 SE6 30.17S  
DENTON MOCLDY 60 46 59 S8 30.19S  
MCKINNEY CLEAR 63 40 42 SE8 30.19S  
BONHAM CLEAR 60 37 41 SE7 30.20S  
GREENVILLE CLEAR 64 37 36 E5 30.20F  
ROCKWALL CLEAR 63 39 42 SE5 30.19S HAZE  
TERRELL CLEAR 64 37 36 SE8 30.20S  
WAXAHACHIE MOCLDY 63 47 55 SE5 30.20S  
CLEBURNE PTCLDY 59 50 72 S8 30.21R  
GRANBURY CLOUDY 61 48 61 SE7 30.20S  

 
 
TXZ083>090-098>101-113>116-127>130-139>142-154-155-110000-  
WESTERN NORTH TEXAS  
 
CITY SKY/WX TMP DP RH WIND PRES REMARKS
 
WICHITA FALLS CLOUDY 56 46 69 SE10 30.16F  
WF-KICKAPOO CLOUDY 56 47 72 SE13 30.19F  
VERNON CLOUDY 56 43 62 SE10 30.16R  
ABILENE CLOUDY 52 52 100 SE10 30.16S FOG  
ABILENE-DYESS CLOUDY 54 54 100 SE10 30.15S  
GRAHAM N/A 57 49 74 CALM 30.16S  
BRECKENRIDGE CLOUDY 58 48 68 S10 30.17S  
CISCO CLOUDY 54 50 87 SE13 30.18S  
EASTLAND CLOUDY 54 49 85 S10 30.18S  
RANGER CLOUDY 55 50 83 S8 30.18S  
MINERAL WELLS CLOUDY 58 48 69 S8 30.17S  
STEPHENVILLE CLOUDY 57 48 72 S5 30.21S  
COMANCHE CLOUDY 55 52 88 SE6 30.19S  
BROWNWOOD CLOUDY 55 50 82 SE6 30.18F  
COLEMAN CLOUDY 54 50 89 SE9 30.18R  

 
 
TXZ143>147-156>162-174-175-110000-  
CENTRAL TEXAS  
 
CITY SKY/WX TMP DP RH WIND PRES REMARKS
 
WACO CLOUDY 63 49 60 S6 30.19S  
WACO-MCGREGOR CLOUDY 61 51 70 SE7 30.20S  
HILLSBORO PTCLDY 62 50 65 SE7 30.19S  
CORSICANA MOCLDY 62 41 46 SE7 30.20F  
MEXIA CLOUDY 63 43 47 E9 30.19S  
HEARNE CLOUDY 64 47 54 CALM 30.21R  
CAMERON CLOUDY 63 49 59 S3 30.20S  
TEMPLE CLOUDY 62 50 64 SE7 30.20S  
KILLEEN CLOUDY 59 49 70 E6 30.18F  
KILLEEN-SKYLRK CLOUDY 60 49 66 SE6 30.20S  
FORT HOOD CLOUDY 59 49 68 SE6 30.15F  
GATESVILLE CLOUDY 59 48 67 CALM 30.21F  
HAMILTON CLOUDY 58 50 74 SE7 30.19F  
LAMPASAS CLOUDY 58 51 76 SE6 30.18F  

 
 
TXZ095>097-106>112-122>126-135>138-148>153-164>167-110000-  
EAST TEXAS  
 
CITY SKY/WX TMP DP RH WIND PRES REMARKS
 
PARIS CLEAR 60 34 37 SE8 30.21F  
SULPHUR SPRNGS CLEAR 63 34 33 SE7 30.22F  
MOUNT PLEASANT CLEAR 61 37 41 E5 30.23F  
GILMER PTCLDY 62 39 43 E3 30.22S  
MINEOLA CLEAR 63 39 42 SE5 30.21S  
TYLER MOCLDY 62 38 40 E8 30.20F  
LONGVIEW CLEAR 63 43 48 SE6 30.21  
MARSHALL CLEAR 61 39 43 CALM 30.25S  
ATHENS CLEAR 59 37 44 E5 30.19F  
PALESTINE CLOUDY 64 45 50 E3 30.22S  
JACKSONVILLE CLOUDY 61 44 53 E3 30.22S  
HENDERSON PTCLDY 61 41 48 CALM 30.23S  
CENTER CLEAR 62 40 45 E3 30.23S  
NACOGDOCHES MOCLDY 62 44 51 E3 30.22S  
LUFKIN CLOUDY 64 45 49 E5 30.21S  

 
 
SUPPLEMENTAL OBSERVATIONS (NWS FORT WORTH AREA)  
 
CITY SKY/WX TMP DP RH WIND PRES REMARKS
 
CADDO GRASSLND N/A 63 37 39 SE2 N/A  
PAT MAYSE LAKE N/A 63 30 29 E6 N/A  
LBJ GRASSLAND N/A 61 46 59 S7 N/A  
POSSUM KINGDOM N/A 57 48 72 SE8 N/A  
GRANBURY N/A 61 46 59 SE8 N/A  
MCGREGOR N/A 61 48 63 S6 N/A  
TEMPLE N/A 63 50 63 S2 N/A  

 
 
SUPPLEMENTAL OBSERVATIONS (NWS NORMAN AREA)  
 
CITY SKY/WX TMP DP RH WIND PRES REMARKS
 
GOODLETT N/A 53 45 74 SE10 30.13F  
ODELL N/A 52 46 78 E14 30.16S  
CROWELL N/A 55 47 75 SE9 30.15F  
KNOX CITY N/A 56 48 73 SE12 30.15F  
SEYMOUR N/A 56 47 72 SE10 30.16S  
MILLERS CREEK N/A 57 50 77 SE9 N/A  

 
 
SUPPLEMENTAL OBSERVATIONS (NWS SAN ANGELO AREA)  
 
CITY SKY/WX TMP DP RH WIND PRES REMARKS
 
WEINERT N/A 56 48 76 SE9 30.16S  
HASKELL N/A 55 48 77 SE8 30.16R  
THROCKMORTON N/A 57 50 76 SE7 30.17S  
STAMFORD N/A 56 51 85 SE13 30.17R  
CLYDE N/A 51 50 96 SE9 30.17S  
HAMBY N/A 54 48 82 SE7 N/A  
IVIE RESERVOIR N/A 55 52 88 E10 N/A  
COLORADO BEND N/A 57 48 72 SE7 N/A  

 
 
SUPPLEMENTAL OBSERVATIONS (NWS SHREVEPORT AREA)  
 
CITY SKY/WX TMP DP RH WIND PRES REMARKS
 
CLARKSVILLE N/A 61 32 33 SE6 N/A  
TEXARKANA N/A 59 39 47 E1 N/A  
LINDEN N/A 59 37 44 E1 N/A  
GILMER N/A 63 39 42 E3 N/A  
HENDERSON N/A 61 41 48 E3 N/A  
LUFKIN N/A 63 45 51 MISG N/A  
N SABINE NF N/A 57 50 77 MISG N/A  
S SABINE NF N/A 59 48 67 NW1 N/A  

 
 
SUPPLEMENTAL OBSERVATIONS ARE A COLLECTION OF AUTOMATED INSTRUMENTS  
THAT ARE MAINTAINED BY A VARIETY OF FEDERAL AND STATE AGENCIES.  
CERTAIN ELEMENTS...SUCH AS HUMIDITY VALUES AND SUSTAINED WIND  
SPEEDS...MAY BE APPROXIMATED.  
 
 
 
CLICK HERE TO GO TO PREVIOUS BULLETINS.

The Nexlab TX Page Main Text Page